Temp
77 75 77 78 77 75 73 72 71 71 69 68 67 66 66 66 65 66 70 69 69 66 68 67 65 62 61 61 59 59 58 56
72 69 70 71 74 73 73 71 70 67 65 64 65 64 64 66 66 67 71 71 70 70 70 68 67 66 61 62 62 59 57 57
71 69 67 70 71 72 71 71 67 67 68 68 67 65 65 70 72 71 70 69 68 67 65 64 64 62 61 62 62 59 57 57
67 65 66 66 66 68 69 69 66 67 68 64 61 61 61 68 68 69 69 66 65 65 65 63 62 62 61 62 62 61 57 56
62 62 63 65 65 66 68 66 66 66 67 65 64 64 69 69 69 68 68 63 63 63 62 62 62 61 59 59 61 61 59 53
63 63 63 64 62 63 64 66 67 64 67 66 64 66 67 64 62 61 62 62 61 61 60 60 59 59 59 59 59 58 57 56
61 60 60 60 62 63 64 65 65 65 66 66 67 67 64 61 61 61 61 61 60 59 58 57 57 57 56 58 59 59 58 57
59 58 59 59 61 64 65 67 64 65 65 65 66 66 64 64 64 62 61 59 59 59 57 56 55 56 56 57 57 58 58 55
62 62 63 64 64 65 65 66 65 65 64 65 64 64 64 64 63 62 62 61 62 58 56 56 56 55 55 55 56 56 55 55
62 62 62 63 63 63 64 66 67 65 64 64 63 63 61 61 61 61 61 59 57 55 56 55 55 54 55 55 54 53 51 52
61 62 62 62 64 64 63 64 66 66 64 63 63 62 61 61 60 59 58 58 57 55 56 55 54 53 54 53 53 52 49 50
61 62 62 63 64 63 62 62 63 62 62 62 61 61 60 59 57 58 58 57 56 55 55 54 54 53 53 52 52 52 49 49
63 63 62 61 62 62 62 61 59 60 60 60 59 58 58 57 58 59 59 57 57 56 55 53 53 53 53 51 48 49 48 48
60 60 60 62 61 60 60 59 58 59 59 57 56 57 57 58 58 58 57 57 57 56 54 52 53 52 50 50 49 48 47 46
61 61 60 60 59 58 57 55 56 57 58 57 57 57 56 57 56 55 56 56 55 55 54 52 52 52 51 49 47 47 46 46
57 57 60 58 55 54 55 56 56 56 56 57 58 56 56 55 54 54 54 54 54 55 53 50 49 48 48 48 46 44 45 45
60 59 58 55 55 55 54 54 54 56 57 58 57 55 54 53 53 53 53 53 54 53 52 50 48 47 43 42 43 43 45 43
59 56 55 54 55 53 53 53 54 53 56 55 55 55 53 53 53 52 52 52 52 51 51 48 46 46 42 42 40 43 42 41
55 55 54 53 56 55 53 54 53 53 53 54 53 52 51 51 50 50 50 51 50 49 49 49 46 44 40 40 39 41 41 40
MSLP
1008.19 1008.64 1009.06 1009.37 1009.78 1010.47 1011.05 1011.72 1012.34 1013.12 1013.94 1014.59 1015.11 1015.49 1015.84 1016.19 1016.38 1016.46 1016.45 1016.66 1016.88 1017.10 1017.16 1017.40 1017.88 1018.12 1018.27 1018.32 1018.48 1018.83 1019.16 1019.49
1008.25 1008.79 1009.08 1009.22 1009.44 1009.89 1010.37 1011.10 1012.07 1012.91 1013.63 1014.38 1015.02 1015.22 1015.52 1015.92 1016.00 1016.06 1016.08 1016.30 1016.68 1016.75 1016.87 1017.09 1017.42 1017.63 1017.79 1017.90 1018.16 1018.38 1018.83 1019.14
1007.99 1008.57 1008.88 1008.91 1008.92 1009.41 1010.08 1010.75 1011.73 1012.46 1013.08 1013.61 1014.18 1014.79 1015.23 1015.34 1015.29 1015.58 1015.85 1016.15 1016.47 1016.63 1016.83 1017.11 1017.30 1017.53 1017.61 1017.62 1017.63 1017.79 1018.10 1018.74
1008.01 1008.54 1008.89 1009.12 1009.24 1009.60 1010.00 1010.52 1011.27 1011.92 1012.67 1013.47 1014.14 1014.65 1015.16 1015.27 1015.31 1015.41 1015.68 1016.15 1016.37 1016.48 1016.57 1016.76 1016.95 1017.05 1017.18 1017.05 1017.23 1017.31 1017.40 1017.81
1008.41 1008.74 1008.90 1008.89 1009.02 1009.24 1009.56 1010.05 1010.75 1011.56 1012.12 1012.73 1013.29 1013.90 1014.24 1014.50 1014.89 1015.48 1015.84 1016.13 1016.26 1016.55 1016.72 1016.69 1016.82 1017.15 1017.21 1017.11 1016.85 1016.86 1016.88 1017.34
1008.47 1008.75 1008.94 1009.00 1009.29 1009.36 1009.67 1010.18 1010.62 1011.38 1011.87 1012.35 1012.94 1013.62 1014.03 1014.69 1015.35 1015.53 1015.76 1016.13 1016.24 1016.33 1016.50 1016.66 1016.68 1016.81 1016.82 1016.81 1016.86 1016.82 1016.66 1016.87
1008.81 1008.90 1008.95 1009.07 1009.32 1009.50 1009.68 1009.97 1010.56 1011.41 1012.07 1012.41 1012.72 1013.14 1013.84 1014.71 1015.22 1015.42 1015.62 1015.80 1015.98 1016.09 1016.26 1016.39 1016.28 1016.36 1016.45 1016.53 1016.50 1016.30 1016.09 1016.10
1008.92 1009.07 1009.09 1009.06 1009.04 1009.32 1009.71 1010.09 1010.61 1011.14 1011.52 1011.82 1012.18 1012.60 1013.39 1013.84 1014.23 1014.72 1015.29 1015.44 1015.57 1015.78 1015.81 1015.79 1015.84 1015.77 1015.86 1015.91 1016.02 1015.97 1016.03 1016.12
1008.86 1009.03 1009.16 1009.17 1009.24 1009.36 1009.70 1010.13 1010.39 1010.71 1011.23 1011.61 1011.94 1012.46 1013.03 1013.49 1013.93 1014.46 1014.75 1014.87 1014.93 1015.11 1015.34 1015.34 1015.33 1015.32 1015.40 1015.65 1015.72 1015.80 1015.98 1016.07
1008.47 1008.83 1009.09 1009.14 1009.13 1009.42 1009.58 1009.75 1010.24 1010.80 1011.11 1011.67 1012.29 1012.86 1013.40 1013.83 1014.13 1014.33 1014.35 1014.41 1014.38 1014.68 1014.73 1014.92 1014.86 1015.01 1015.20 1015.24 1015.36 1015.56 1015.79 1015.86
1008.48 1008.71 1008.95 1009.02 1009.05 1009.34 1009.94 1010.08 1010.31 1010.83 1011.20 1011.56 1012.01 1012.60 1013.12 1013.56 1013.57 1013.69 1014.00 1014.15 1014.25 1014.23 1014.16 1014.10 1014.39 1014.50 1014.66 1014.72 1014.89 1015.09 1015.32 1015.34
1007.82 1008.08 1008.40 1008.76 1009.41 1009.59 1009.75 1010.14 1010.44 1010.82 1011.50 1011.81 1011.96 1012.30 1012.62 1012.96 1013.42 1013.62 1013.63 1013.52 1013.51 1013.50 1013.65 1013.75 1013.71 1013.82 1013.98 1014.27 1014.29 1014.44 1014.52 1014.61
1007.45 1007.75 1008.25 1008.57 1008.76 1009.29 1009.88 1010.36 1010.74 1011.25 1011.45 1011.66 1011.90 1012.27 1012.51 1012.94 1013.25 1012.97 1013.02 1013.29 1013.01 1013.05 1012.90 1012.96 1013.09 1013.31 1013.48 1013.51 1013.62 1013.71 1013.80 1013.93
1007.24 1007.73 1007.91 1008.19 1008.53 1008.98 1009.58 1010.19 1010.55 1011.08 1011.24 1011.50 1011.84 1011.91 1012.26 1012.25 1012.51 1012.70 1012.62 1012.66 1012.44 1012.26 1012.48 1012.30 1012.15 1012.43 1012.71 1012.70 1012.88 1013.13 1013.31 1013.46
1006.13 1006.48 1006.61 1007.12 1008.01 1008.61 1009.22 1009.79 1010.49 1010.85 1011.32 1011.71 1012.17 1012.02 1011.69 1012.03 1012.18 1012.35 1012.36 1012.41 1012.17 1012.02 1011.73 1011.79 1011.78 1011.65 1011.96 1012.17 1012.28 1012.65 1012.81 1012.90
1005.58 1005.86 1006.22 1006.96 1007.48 1007.97 1008.77 1009.38 1009.95 1010.56 1011.12 1011.55 1011.64 1011.91 1012.14 1012.41 1012.63 1012.57 1012.40 1012.07 1011.64 1011.24 1010.93 1010.93 1011.14 1011.21 1011.33 1011.59 1011.90 1012.16 1012.48 1012.66
1004.74 1005.19 1005.72 1006.37 1007.25 1008.18 1008.77 1009.28 1009.77 1010.07 1010.57 1010.89 1011.34 1011.79 1012.51 1012.39 1012.19 1012.12 1011.80 1011.30 1011.04 1010.90 1010.60 1010.59 1010.55 1010.56 1010.74 1011.16 1011.40 1011.56 1011.91 1012.14
1004.31 1004.75 1005.24 1005.86 1006.70 1007.28 1008.02 1008.75 1009.47 1009.96 1010.02 1010.60 1011.00 1011.35 1012.07 1012.08 1012.11 1011.91 1011.81 1011.48 1010.92 1010.32 1009.94 1010.13 1010.16 1010.12 1010.28 1010.46 1010.75 1010.95 1011.39 1011.66
1003.79 1004.35 1005.15 1005.65 1006.25 1006.97 1007.94 1008.58 1009.29 1010.01 1010.41 1010.69 1011.11 1011.68 1011.69 1011.70 1011.91 1011.56 1011.23 1010.97 1010.58 1009.92 1009.60 1009.56 1009.75 1009.81 1009.87 1009.99 1010.01 1010.64 1010.96 1011.24
Wind_Speed
11 13 12 13 13 14 14 13 14 14 9 6 5 4 3 3 4 4 7 5 7 7 6 7 4 3 2 3 5 3 3 5
5 5 6 10 13 15 17 16 14 11 8 7 4 3 3 4 5 7 6 5 6 6 4 5 5 6 5 6 4 6 5 6
8 5 4 8 13 15 15 15 14 11 8 7 4 4 2 3 4 5 4 5 5 4 4 5 5 4 6 8 8 4 4 8
7 4 5 6 9 12 13 15 13 12 12 8 5 4 2 3 4 3 3 3 4 4 5 5 6 6 6 7 8 9 6 7
4 6 7 9 9 12 14 13 14 12 15 9 8 5 5 3 2 1 2 3 3 3 4 5 5 6 6 6 6 8 7 5
7 8 8 7 8 10 10 13 14 12 13 10 7 7 4 3 2 3 4 4 5 5 5 5 6 5 7 9 8 8 6 5
6 5 6 6 7 10 12 13 12 12 11 10 10 10 7 4 4 4 4 3 4 6 7 6 7 7 7 6 8 9 9 8
10 9 8 8 10 12 12 14 13 13 12 12 11 9 8 8 6 5 5 5 5 7 8 8 7 6 7 7 8 7 7 6
12 12 11 11 11 12 12 13 13 13 11 9 8 8 5 5 6 6 6 6 6 5 6 7 8 8 8 7 6 6 7 7
12 11 11 11 12 12 13 13 11 9 9 6 6 5 5 6 7 6 6 7 6 7 8 9 9 8 9 8 7 8 7 7
12 11 12 11 11 11 9 8 9 7 6 5 5 5 6 6 5 8 8 8 8 9 9 9 9 9 8 8 8 8 8 6
15 14 12 12 9 9 8 7 8 7 5 5 5 4 3 3 5 6 7 7 7 8 8 8 10 10 9 9 10 9 10 9
14 14 12 13 13 11 9 7 7 6 5 4 4 3 4 3 4 6 7 9 9 10 9 9 10 11 11 12 12 10 11 10
13 13 14 14 13 10 8 7 7 5 6 6 5 4 2 2 5 6 7 9 11 11 11 12 12 12 12 13 11 10 10 9
14 14 16 14 11 10 9 8 7 7 5 4 3 3 2 3 4 6 8 9 10 11 10 12 12 11 12 10 9 10 11 10
12 14 15 12 10 9 8 8 8 7 6 5 4 2 1 4 6 7 9 9 10 10 10 8 8 8 8 10 9 8 9 10
13 14 13 13 11 10 8 8 7 7 6 5 2 0 3 5 6 8 9 10 11 11 11 11 9 7 9 12 9 6 10 9
11 13 13 11 13 11 10 8 7 6 5 3 3 1 5 6 8 10 11 13 12 12 10 8 9 9 10 13 15 7 7 8
9 8 11 12 13 11 7 7 6 4 4 4 2 3 5 7 9 11 12 12 13 11 9 7 7 6 10 12 12 8 7 7
Wind_Direction
232 230 235 228 215 202 191 187 183 179 168 159 163 165 161 166 193 196 206 206 204 205 223 234 222 205 227 218 218 173 186 182
211 226 231 224 215 200 193 182 180 167 153 164 163 169 165 196 199 202 208 222 227 232 249 248 242 240 223 222 232 215 199 177
229 235 261 224 208 201 187 183 168 167 167 168 147 151 159 205 193 192 220 228 230 229 242 257 260 247 235 234 218 192 188 172
228 232 226 207 193 186 183 178 164 165 159 128 109 96 108 174 188 206 210 217 226 232 240 252 258 252 253 245 239 227 214 192
203 209 211 195 181 181 176 163 162 158 161 152 157 161 176 177 171 144 229 228 235 252 263 260 263 265 266 261 254 237 226 202
205 205 205 190 172 171 160 162 158 159 169 164 157 166 166 125 157 214 231 245 249 252 259 259 260 256 255 250 240 231 217 216
211 204 182 166 165 168 165 163 157 160 166 170 173 171 172 178 203 235 245 251 255 243 237 242 240 238 244 250 247 238 228 225
193 187 181 175 172 169 164 163 159 171 174 175 177 182 183 207 212 223 237 240 237 234 225 228 237 234 233 229 231 235 235 237
200 195 190 180 171 168 167 172 171 176 179 182 185 187 199 216 225 228 243 250 257 243 239 242 243 234 231 233 242 242 242 245
210 205 203 195 188 186 186 182 182 182 192 191 200 212 219 236 242 248 258 256 258 252 240 241 241 239 237 232 241 245 238 241
221 222 217 212 204 199 201 203 199 198 205 213 223 223 227 245 254 258 252 266 256 246 244 240 243 236 233 229 238 235 235 241
218 222 220 222 227 220 212 215 218 215 223 219 220 226 236 255 251 262 263 271 285 279 272 260 245 241 232 229 231 230 226 234
228 226 220 220 221 220 223 223 225 219 209 212 204 163 172 208 264 277 295 292 279 267 260 252 246 241 232 224 224 223 228 229
233 229 225 227 222 213 208 206 207 197 175 160 153 150 111 359 315 317 294 292 284 279 263 248 239 232 232 227 227 231 221 220
239 230 220 217 211 197 193 176 167 145 130 133 136 148 171 261 279 287 295 298 292 290 273 268 256 239 237 231 218 231 227 226
237 235 233 215 189 179 161 145 138 146 156 171 188 188 286 286 309 318 311 302 295 288 276 258 245 242 236 228 211 206 232 231
247 237 223 200 179 164 141 149 164 170 175 193 174 42 311 303 304 313 303 297 298 295 278 262 246 235 235 224 213 206 220 214
248 222 205 174 167 156 164 165 162 179 186 185 215 253 297 299 309 305 299 301 299 285 274 247 247 243 220 213 206 209 207 209
228 196 177 163 159 164 143 154 163 174 193 228 247 286 296 302 303 299 298 299 295 285 276 265 256 245 218 219 200 208 201 194